Location: Peebles
(55.6412°N, 3.1714°W)
Time: 02:30:09
(UTC+01:00)

deb Kosmos-1275 - Visible Passes

Search period start: 01 July 2022 00:00
Search period end: 11 July 2022 00:00
Orbit: 935 x 1133 km, 83.1° (Epoch: 30 June)

Date Brightness Start Highest point End Pass type
(mag) Time Alt. Az. Time Alt. Az. Time Alt. Az.
01 Jul ? 00:22:01 10° NNW 00:26:42 23° W 00:31:30 10° SW visible
01 Jul ? 23:17:37 10° NNW 23:23:34 50° W 23:29:45 10° SSW visible
02 Jul ? 01:07:13 10° NW 01:08:46 11° WNW 01:10:20 10° W visible
03 Jul ? 00:01:07 10° NNW 00:06:04 26° W 00:11:11 10° SW visible
03 Jul ? 22:56:49 10° NNW 23:02:53 55° W 23:09:13 10° SSW visible
04 Jul ? 00:45:44 10° NW 00:48:12 13° WNW 00:50:42 10° W visible
04 Jul ? 23:40:14 10° NNW 23:45:26 28° W 23:50:49 10° SW visible
06 Jul ? 00:24:30 10° NW 00:27:37 14° WNW 00:30:48 10° WSW visible
06 Jul ? 23:19:21 10° NNW 23:24:48 31° W 23:30:26 10° SW visible
08 Jul ? 00:03:24 10° NW 00:07:02 16° WNW 00:10:45 10° WSW visible
08 Jul ? 22:58:30 10° NNW 23:04:08 35° W 23:10:01 10° SSW visible
09 Jul ? 23:42:21 10° NW 23:46:26 18° WNW 23:50:36 10° WSW visible
10 Jul ? 22:37:40 10° NNW 22:43:30 39° W 22:49:33 10° SSW visible
